Time,TemperatureF,DewpointF,PressureIn,WindDirection,WindDirectionDegrees,WindSpeedMPH,WindSpeedGustMPH,Humidity,HourlyPrecipIn,Conditions,Clouds,dailyrainin,SoftwareType,DateUTC
2013-07-23 00:01:00,51.0,49.0,30.02,SE,130,0.0,2.0,94,0.00,,,0.00,,2013-07-23 07:01:00,
2013-07-23 00:11:00,51.0,49.0,30.02,SE,130,0.0,2.0,94,0.00,,,0.00,,2013-07-23 07:11:00,
2013-07-23 00:21:00,51.0,49.0,30.02,SE,130,0.0,2.0,94,0.00,,,0.00,,2013-07-23 07:21:00,
2013-07-23 00:42:00,51.0,49.0,30.03,NE,54,0.0,1.0,94,0.00,,,0.00,,2013-07-23 07:42:00,
2013-07-23 01:01:00,51.0,49.0,30.03,SE,130,0.0,0.0,94,0.00,,,0.00,,2013-07-23 08:01:00,
2013-07-23 01:11:00,51.0,49.0,30.03,SE,130,0.0,0.0,94,0.00,,,0.00,,2013-07-23 08:11:00,
2013-07-23 01:21:00,51.0,49.0,30.03,SE,130,0.0,0.0,94,0.00,,,0.00,,2013-07-23 08:21:00,
2013-07-23 01:33:00,51.0,49.0,30.03,SE,130,0.0,0.0,94,0.00,,,0.00,,2013-07-23 08:33:00,
2013-07-23 01:43:00,50.0,48.0,30.03,ENE,57,0.0,1.0,94,0.00,,,0.00,,2013-07-23 08:43:00,
2013-07-23 01:52:00,50.0,48.0,30.03,ENE,57,0.0,1.0,94,0.00,,,0.00,,2013-07-23 08:52:00,
2013-07-23 02:01:00,50.0,48.0,30.03,ENE,57,0.0,1.0,94,0.00,,,0.00,,2013-07-23 09:01:00,
2013-07-23 02:22:00,50.0,49.0,30.04,ENE,58,0.0,1.0,95,0.00,,,0.00,,2013-07-23 09:22:00,
2013-07-23 02:33:00,50.0,49.0,30.03,ENE,58,0.0,0.0,95,0.00,,,0.00,,2013-07-23 09:33:00,
2013-07-23 02:52:00,50.0,49.0,30.03,NE,38,0.0,2.0,95,0.00,,,0.00,,2013-07-23 09:52:00,
2013-07-23 03:01:00,50.0,49.0,30.04,SSE,149,0.0,1.0,95,0.00,,,0.00,,2013-07-23 10:01:00,
2013-07-23 03:11:00,50.0,49.0,30.04,SSE,149,0.0,1.0,95,0.00,,,0.00,,2013-07-23 10:11:00,
2013-07-23 03:21:00,50.0,49.0,30.03,NNE,26,0.0,1.0,95,0.00,,,0.00,,2013-07-23 10:21:00,
2013-07-23 03:32:00,50.0,49.0,30.03,NNE,26,0.0,1.0,95,0.00,,,0.00,,2013-07-23 10:32:00,
2013-07-23 04:01:00,49.0,48.0,30.03,East,101,0.0,4.0,95,0.00,,,0.00,,2013-07-23 11:01:00,
2013-07-23 04:11:00,49.0,48.0,30.03,East,101,0.0,4.0,95,0.00,,,0.00,,2013-07-23 11:11:00,
2013-07-23 04:21:00,49.0,48.0,30.03,East,93,0.0,1.0,95,0.00,,,0.00,,2013-07-23 11:21:00,
2013-07-23 04:32:00,49.0,48.0,30.03,East,93,0.0,0.0,95,0.00,,,0.00,,2013-07-23 11:32:00,
2013-07-23 04:43:00,49.0,48.0,30.03,East,93,0.0,0.0,95,0.00,,,0.00,,2013-07-23 11:43:00,
2013-07-23 04:52:00,49.0,48.0,30.03,East,93,0.0,0.0,95,0.00,,,0.00,,2013-07-23 11:52:00,
2013-07-23 05:02:00,49.0,48.0,30.03,East,93,0.0,0.0,95,0.00,,,0.00,,2013-07-23 12:02:00,
2013-07-23 05:11:00,49.0,48.0,30.03,East,93,0.0,0.0,95,0.00,,,0.00,,2013-07-23 12:11:00,
2013-07-23 05:33:00,49.0,48.0,30.03,East,93,0.0,0.0,95,0.00,,,0.00,,2013-07-23 12:33:00,
2013-07-23 05:43:00,49.0,48.0,30.03,East,93,0.0,1.0,95,0.00,,,0.00,,2013-07-23 12:43:00,
2013-07-23 06:11:00,49.0,48.0,30.03,East,93,0.0,0.0,95,0.00,,,0.00,,2013-07-23 13:11:00,
2013-07-23 06:32:00,49.0,48.0,30.03,NE,38,0.0,3.0,95,0.00,,,0.00,,2013-07-23 13:32:00,
2013-07-23 06:43:00,49.0,48.0,30.03,NE,40,0.0,1.0,96,0.00,,,0.00,,2013-07-23 13:43:00,
2013-07-23 06:52:00,49.0,48.0,30.03,NE,40,0.0,1.0,96,0.00,,,0.00,,2013-07-23 13:52:00,
2013-07-23 07:02:00,49.0,48.0,30.03,NE,40,0.0,1.0,95,0.00,,,0.00,,2013-07-23 14:02:00,
2013-07-23 07:12:00,49.0,48.0,30.03,NE,40,0.0,0.0,96,0.00,,,0.00,,2013-07-23 14:12:00,
2013-07-23 07:22:00,49.0,48.0,30.03,NE,40,0.0,0.0,96,0.00,,,0.00,,2013-07-23 14:22:00,
2013-07-23 07:32:00,49.0,48.0,30.03,NE,40,0.0,0.0,96,0.00,,,0.00,,2013-07-23 14:32:00,
2013-07-23 07:44:00,49.0,48.0,30.04,NE,40,0.0,0.0,96,0.00,,,0.00,,2013-07-23 14:44:00,
2013-07-23 07:53:00,49.0,48.0,30.04,NE,40,0.0,0.0,96,0.00,,,0.00,,2013-07-23 14:53:00,
2013-07-23 08:03:00,49.0,48.0,30.05,NE,40,0.0,0.0,96,0.00,,,0.00,,2013-07-23 15:03:00,
2013-07-23 08:11:00,49.0,48.0,30.05,NE,40,0.0,0.0,96,0.00,,,0.00,,2013-07-23 15:11:00,
2013-07-23 08:24:00,50.0,49.0,30.05,NE,40,0.0,1.0,96,0.00,,,0.00,,2013-07-23 15:24:00,
2013-07-23 08:32:00,50.0,49.0,30.05,NE,40,0.0,1.0,96,0.00,,,0.00,,2013-07-23 15:32:00,
2013-07-23 08:43:00,50.0,49.0,30.05,NE,40,0.0,1.0,96,0.00,,,0.00,,2013-07-23 15:43:00,
2013-07-23 08:52:00,50.0,49.0,30.05,NE,40,0.0,1.0,96,0.00,,,0.00,,2013-07-23 15:52:00,
2013-07-23 09:01:00,50.0,49.0,30.06,NE,38,0.0,2.0,96,0.00,,,0.00,,2013-07-23 16:01:00,
2013-07-23 09:12:00,50.0,49.0,30.06,SW,216,0.0,3.0,95,0.00,,,0.00,,2013-07-23 16:12:00,
2013-07-23 09:33:00,50.0,49.0,30.06,ENE,77,0.0,2.0,95,0.00,,,0.00,,2013-07-23 16:33:00,
2013-07-23 09:43:00,50.0,49.0,30.06,East,91,0.0,2.0,96,0.00,,,0.00,,2013-07-23 16:43:00,
2013-07-23 09:52:00,51.0,50.0,30.06,East,83,1.0,4.0,95,0.00,,,0.00,,2013-07-23 16:52:00,
2013-07-23 10:02:00,51.0,50.0,30.06,East,83,1.0,4.0,95,0.00,,,0.00,,2013-07-23 17:02:00,
2013-07-23 10:11:00,51.0,50.0,30.06,East,83,1.0,4.0,95,0.00,,,0.00,,2013-07-23 17:11:00,
2013-07-23 10:21:00,51.0,49.0,30.06,SSE,154,0.0,2.0,94,0.00,,,0.00,,2013-07-23 17:21:00,
2013-07-23 10:32:00,51.0,49.0,30.06,ENE,71,0.0,1.0,94,0.00,,,0.00,,2013-07-23 17:32:00,
2013-07-23 10:42:00,52.0,50.0,30.06,East,84,0.0,1.0,92,0.00,,,0.00,,2013-07-23 17:42:00,
2013-07-23 10:53:00,52.0,50.0,30.06,East,84,0.0,1.0,92,0.00,,,0.00,,2013-07-23 17:53:00,
2013-07-23 11:11:00,52.0,49.0,30.06,East,86,0.0,2.0,91,0.00,,,0.00,,2013-07-23 18:11:00,
2013-07-23 11:32:00,53.0,50.0,30.04,SSE,153,0.0,5.0,90,0.00,,,0.00,,2013-07-23 18:32:00,
2013-07-23 11:48:00,54.0,51.0,30.05,ESE,103,0.0,5.0,88,0.00,,,0.00,,2013-07-23 18:48:00,
2013-07-23 11:55:00,54.0,51.0,30.05,ESE,103,0.0,5.0,88,0.00,,,0.00,,2013-07-23 18:55:00,
2013-07-23 12:01:00,54.0,51.0,30.05,SSW,206,1.0,4.0,88,0.00,,,0.00,,2013-07-23 19:01:00,
2013-07-23 12:12:00,54.0,51.0,30.05,SSW,206,1.0,4.0,88,0.00,,,0.00,,2013-07-23 19:12:00,
2013-07-23 12:22:00,54.0,51.0,30.05,SSW,206,1.0,4.0,88,0.00,,,0.00,,2013-07-23 19:22:00,
2013-07-23 12:32:00,54.0,51.0,30.05,SSW,206,1.0,4.0,88,0.00,,,0.00,,2013-07-23 19:32:00,
2013-07-23 12:55:00,56.0,51.0,30.05,NNE,26,2.0,6.0,83,0.00,,,0.00,,2013-07-23 19:55:00,
2013-07-23 13:03:00,56.0,52.0,30.05,SSE,157,0.0,5.0,85,0.00,,,0.00,,2013-07-23 20:03:00,
2013-07-23 13:21:00,56.0,52.0,30.05,ENE,75,0.0,4.0,85,0.00,,,0.00,,2013-07-23 20:21:00,
2013-07-23 13:32:00,56.0,52.0,30.05,ENE,75,0.0,4.0,85,0.00,,,0.00,,2013-07-23 20:32:00,
2013-07-23 13:43:00,57.0,53.0,30.05,South,183,0.0,4.0,86,0.00,,,0.00,,2013-07-23 20:43:00,
2013-07-23 13:52:00,57.0,53.0,30.05,South,183,0.0,4.0,86,0.00,,,0.00,,2013-07-23 20:52:00,
2013-07-23 14:22:00,59.0,53.0,30.04,East,94,0.0,5.0,80,0.00,,,0.00,,2013-07-23 21:22:00,
2013-07-23 14:33:00,59.0,53.0,30.04,East,94,0.0,5.0,80,0.00,,,0.00,,2013-07-23 21:33:00,
2013-07-23 14:44:00,58.0,52.0,30.04,ENE,62,1.0,11.0,81,0.00,,,0.00,,2013-07-23 21:44:00,
2013-07-23 14:53:00,58.0,52.0,30.04,ENE,62,1.0,11.0,81,0.00,,,0.00,,2013-07-23 21:53:00,
2013-07-23 15:03:00,59.0,53.0,30.04,SE,128,1.0,4.0,81,0.00,,,0.00,,2013-07-23 22:03:00,
2013-07-23 15:11:00,59.0,53.0,30.04,SE,128,1.0,4.0,81,0.00,,,0.00,,2013-07-23 22:11:00,
2013-07-23 15:32:00,58.0,53.0,30.04,NE,56,0.0,4.0,82,0.00,,,0.00,,2013-07-23 22:32:00,
2013-07-23 15:43:00,59.0,54.0,30.03,NE,37,2.0,6.0,82,0.00,,,0.00,,2013-07-23 22:43:00,
2013-07-23 15:53:00,59.0,54.0,30.03,NE,37,2.0,6.0,82,0.00,,,0.00,,2013-07-23 22:53:00,
2013-07-23 16:02:00,59.0,54.0,30.03,NE,37,2.0,6.0,82,0.00,,,0.00,,2013-07-23 23:02:00,
2013-07-23 16:11:00,59.0,54.0,30.03,ESE,115,1.0,6.0,82,0.00,,,0.00,,2013-07-23 23:11:00,
2013-07-23 16:22:00,59.0,54.0,30.03,ESE,115,1.0,6.0,82,0.00,,,0.00,,2013-07-23 23:22:00,
2013-07-23 16:43:00,57.0,53.0,30.04,ENE,62,1.0,10.0,86,0.00,,,0.00,,2013-07-23 23:43:00,
2013-07-23 16:58:00,57.0,53.0,30.04,ENE,62,1.0,10.0,86,0.00,,,0.00,,2013-07-23 23:58:00,
2013-07-23 17:03:00,57.0,53.0,30.04,SE,124,1.0,7.0,87,0.00,,,0.00,,2013-07-24 00:03:00,
2013-07-23 17:12:00,57.0,53.0,30.04,SE,124,1.0,7.0,87,0.00,,,0.00,,2013-07-24 00:12:00,
2013-07-23 17:33:00,57.0,53.0,30.04,SE,124,1.0,7.0,87,0.00,,,0.00,,2013-07-24 00:33:00,
2013-07-23 17:43:00,57.0,53.0,30.04,SE,124,1.0,7.0,87,0.00,,,0.00,,2013-07-24 00:43:00,
2013-07-23 18:24:00,56.0,53.0,30.04,East,86,1.0,3.0,89,0.00,,,0.00,,2013-07-24 01:24:00,
2013-07-23 18:32:00,56.0,53.0,30.04,East,100,0.0,5.0,89,0.00,,,0.00,,2013-07-24 01:32:00,
2013-07-23 18:43:00,55.0,52.0,30.05,ESE,108,1.0,8.0,90,0.00,,,0.00,,2013-07-24 01:43:00,
2013-07-23 19:12:00,55.0,52.0,30.05,ESE,110,1.0,6.0,91,0.00,,,0.00,,2013-07-24 02:12:00,
2013-07-23 19:22:00,55.0,52.0,30.05,ESE,110,1.0,6.0,91,0.00,,,0.00,,2013-07-24 02:22:00,
2013-07-23 19:33:00,55.0,52.0,30.05,ESE,110,1.0,6.0,91,0.00,,,0.00,,2013-07-24 02:33:00,
2013-07-23 19:44:00,55.0,52.0,30.05,ESE,110,1.0,6.0,91,0.00,,,0.00,,2013-07-24 02:44:00,
2013-07-23 20:12:00,54.0,52.0,30.08,East,94,1.0,4.0,92,0.00,,,0.00,,2013-07-24 03:12:00,
2013-07-23 20:23:00,54.0,52.0,30.08,East,94,1.0,4.0,92,0.00,,,0.00,,2013-07-24 03:23:00,
2013-07-23 20:33:00,54.0,52.0,30.08,East,94,1.0,4.0,92,0.00,,,0.00,,2013-07-24 03:33:00,
2013-07-23 20:56:00,53.0,51.0,30.08,East,85,0.0,3.0,93,0.00,,,0.00,,2013-07-24 03:56:00,
2013-07-23 21:01:00,53.0,51.0,30.09,ENE,59,0.0,1.0,94,0.00,,,0.00,,2013-07-24 04:01:00,
2013-07-23 21:11:00,53.0,51.0,30.09,ENE,59,0.0,1.0,94,0.00,,,0.00,,2013-07-24 04:11:00,
2013-07-23 21:22:00,53.0,51.0,30.09,ENE,59,0.0,1.0,94,0.00,,,0.00,,2013-07-24 04:22:00,
2013-07-23 21:32:00,53.0,51.0,30.09,ENE,61,0.0,1.0,94,0.00,,,0.00,,2013-07-24 04:32:00,
2013-07-23 21:43:00,53.0,51.0,30.09,ENE,61,0.0,1.0,94,0.00,,,0.00,,2013-07-24 04:43:00,
2013-07-23 21:52:00,53.0,51.0,30.09,ENE,61,0.0,1.0,94,0.00,,,0.00,,2013-07-24 04:52:00,
2013-07-23 22:02:00,53.0,51.0,30.09,ENE,61,0.0,1.0,94,0.00,,,0.00,,2013-07-24 05:02:00,
2013-07-23 22:33:00,52.0,50.0,30.10,ENE,78,0.0,1.0,94,0.00,,,0.00,,2013-07-24 05:33:00,
2013-07-23 22:43:00,52.0,51.0,30.10,ESE,109,0.0,1.0,95,0.00,,,0.00,,2013-07-24 05:43:00,
2013-07-23 22:52:00,52.0,51.0,30.10,ESE,109,0.0,1.0,95,0.00,,,0.00,,2013-07-24 05:52:00,
2013-07-23 23:01:00,52.0,51.0,30.09,ENE,71,0.0,2.0,95,0.00,,,0.00,,2013-07-24 06:01:00,
2013-07-23 23:11:00,52.0,51.0,30.10,ESE,117,0.0,4.0,95,0.00,,,0.00,,2013-07-24 06:11:00,
2013-07-23 23:24:00,52.0,51.0,30.10,ESE,117,0.0,4.0,95,0.00,,,0.00,,2013-07-24 06:24:00,
2013-07-23 23:34:00,52.0,51.0,30.10,ESE,103,0.0,0.0,95,0.00,,,0.00,,2013-07-24 06:34:00,
2013-07-23 23:43:00,52.0,51.0,30.09,ESE,103,0.0,0.0,95,0.00,,,0.00,,2013-07-24 06:43:00,
2013-07-23 23:53:00,52.0,51.0,30.09,ESE,103,0.0,0.0,95,0.00,,,0.00,,2013-07-24 06:53:00,